Stündliche Wetter Dresden

Heute, 1 August, Sonntag

Zeit Temperatur Niederschläge Wind Luftdruck Luftfeuchtigkeit
00:00 +17°C° 0 mm 2 m/S 745 mmHg 75%
01:00 +16°C° 0 mm 1 m/S 745 mmHg 76%
02:00 +16°C° 0 mm 1 m/S 745 mmHg 75%
03:00 +16°C° 0 mm 1 m/S 744 mmHg 75%
04:00 +16°C° 0 mm 1 m/S 744 mmHg 74%
05:00 +18°C° 0 mm 1 m/S 744 mmHg 73%
06:00 +18°C° 0 mm 1 m/S 744 mmHg 73%
07:00 +19°C° 0 mm 1 m/S 744 mmHg 72%
08:00 +19°C° 0.1 mm 1 m/S 744 mmHg 71%
09:00 +20°C° 0.1 mm 1 m/S 744 mmHg 71%
10:00 +21°C° 0.1 mm 1 m/S 744 mmHg 70%
11:00 +20°C° 1.4 mm 1 m/S 744 mmHg 74%
12:00 +20°C° 1.4 mm 1 m/S 744 mmHg 78%
13:00 +19°C° 1.4 mm 1 m/S 744 mmHg 82%
14:00 +20°C° 0.2 mm 1 m/S 744 mmHg 78%
15:00 +21°C° 0.2 mm 1 m/S 744 mmHg 73%
16:00 +22°C° 0.2 mm 1 m/S 744 mmHg 69%
17:00 +21°C° 0.1 mm 1 m/S 744 mmHg 72%
18:00 +19°C° 0.1 mm 2 m/S 744 mmHg 75%
19:00 +19°C° 0.1 mm 2 m/S 744 mmHg 78%
20:00 +18°C° 0.1 mm 2 m/S 744 mmHg 81%
21:00 +17°C° 0.1 mm 2 m/S 744 mmHg 84%
22:00 +16°C° 0.1 mm 2 m/S 745 mmHg 88%
23:00 +16°C° 0.1 mm 2 m/S 745 mmHg 89%

Morgen, 2 August, Montag

Zeit Temperatur Niederschläge Wind Luftdruck Luftfeuchtigkeit
00:00 +16°C° 0.1 mm 2 m/S 745 mmHg 90%
01:00 +16°C° 0.1 mm 2 m/S 745 mmHg 91%
02:00 +15°C° 0 mm 2 m/S 745 mmHg 90%
03:00 +15°C° 0 mm 2 m/S 745 mmHg 90%
04:00 +14°C° 0 mm 3 m/S 745 mmHg 90%
05:00 +14°C° 0.1 mm 3 m/S 746 mmHg 90%
06:00 +16°C° 0.1 mm 3 m/S 746 mmHg 89%
07:00 +15°C° 0.1 mm 4 m/S 747 mmHg 89%
08:00 +16°C° 0.2 mm 3 m/S 747 mmHg 88%
09:00 +16°C° 0.2 mm 3 m/S 747 mmHg 87%
10:00 +16°C° 0.2 mm 3 m/S 748 mmHg 87%
11:00 +17°C° 0.2 mm 3 m/S 748 mmHg 81%
12:00 +19°C° 0.2 mm 4 m/S 748 mmHg 75%
13:00 +20°C° 0.2 mm 4 m/S 748 mmHg 69%
14:00 +20°C° 0.3 mm 4 m/S 748 mmHg 66%
15:00 +20°C° 0.3 mm 4 m/S 748 mmHg 62%
16:00 +21°C° 0.3 mm 4 m/S 748 mmHg 59%
17:00 +20°C° 0 mm 4 m/S 748 mmHg 63%
18:00 +19°C° 0 mm 3 m/S 748 mmHg 66%
19:00 +18°C° 0 mm 3 m/S 748 mmHg 69%
20:00 +17°C° 0 mm 2 m/S 748 mmHg 72%
21:00 +16°C° 0 mm 2 m/S 749 mmHg 74%
22:00 +15°C° 0 mm 2 m/S 749 mmHg 77%
23:00 +15°C° 0 mm 2 m/S 749 mmHg 76%

übermorgen, 3 August, Dienstag

Zeit Temperatur Niederschläge Wind Luftdruck Luftfeuchtigkeit
00:00 +15°C° 0 mm 2 m/S 749 mmHg 76%
01:00 +15°C° 0 mm 1 m/S 749 mmHg 75%
02:00 +14°C° 0 mm 1 m/S 749 mmHg 77%
03:00 +14°C° 0 mm 2 m/S 749 mmHg 79%
04:00 +14°C° 0 mm 2 m/S 749 mmHg 81%
05:00 +15°C° 0 mm 2 m/S 749 mmHg 78%
06:00 +16°C° 0 mm 1 m/S 749 mmHg 75%
07:00 +18°C° 0 mm 1 m/S 749 mmHg 72%
08:00 +19°C° 0.1 mm 2 m/S 749 mmHg 68%
09:00 +20°C° 0.1 mm 2 m/S 749 mmHg 64%
10:00 +23°C° 0.1 mm 2 m/S 749 mmHg 60%
11:00 +22°C° 1 mm 3 m/S 749 mmHg 61%
12:00 +22°C° 1 mm 3 m/S 748 mmHg 62%
13:00 +22°C° 1 mm 3 m/S 748 mmHg 63%
14:00 +22°C° 1.5 mm 3 m/S 748 mmHg 67%
15:00 +21°C° 1.5 mm 3 m/S 748 mmHg 72%
16:00 +20°C° 1.5 mm 3 m/S 748 mmHg 76%
17:00 +19°C° 0.5 mm 3 m/S 748 mmHg 78%
18:00 +19°C° 0.5 mm 2 m/S 747 mmHg 79%
19:00 +18°C° 0.5 mm 2 m/S 747 mmHg 80%
20:00 +17°C° 0 mm 2 m/S 748 mmHg 82%
21:00 +16°C° 0 mm 3 m/S 748 mmHg 84%
22:00 +16°C° 0 mm 3 m/S 748 mmHg 85%
23:00 +14°C° 0 mm 3 m/S 748 mmHg 87%

4 August, Mittwoch

Zeit Temperatur Niederschläge Wind Luftdruck Luftfeuchtigkeit
00:00 +14°C° 0 mm 3 m/S 748 mmHg 89%
01:00 +14°C° 0 mm 2 m/S 748 mmHg 91%
02:00 +14°C° 0 mm 2 m/S 748 mmHg 91%
03:00 +14°C° 0 mm 2 m/S 748 mmHg 92%
04:00 +14°C° 0 mm 2 m/S 748 mmHg 92%
05:00 +15°C° 0 mm 2 m/S 748 mmHg 89%
06:00 +15°C° 0 mm 2 m/S 748 mmHg 86%
07:00 +16°C° 0 mm 2 m/S 748 mmHg 82%
08:00 +17°C° 0 mm 2 m/S 748 mmHg 79%
09:00 +18°C° 0 mm 2 m/S 748 mmHg 75%
10:00 +19°C° 0 mm 2 m/S 748 mmHg 71%
11:00 +19°C° 0 mm 2 m/S 748 mmHg 72%
12:00 +19°C° 0 mm 2 m/S 748 mmHg 72%
13:00 +19°C° 0 mm 2 m/S 748 mmHg 72%
14:00 +19°C° 0 mm 2 m/S 748 mmHg 74%
15:00 +19°C° 0 mm 2 m/S 748 mmHg 76%
16:00 +18°C° 0 mm 2 m/S 748 mmHg 78%
17:00 +19°C° 0 mm 1 m/S 748 mmHg 80%
18:00 +19°C° 0 mm 1 m/S 748 mmHg 82%
19:00 +18°C° 0 mm 1 m/S 748 mmHg 84%
20:00 +18°C° 0 mm 1 m/S 748 mmHg 86%
21:00 +17°C° 0 mm 2 m/S 749 mmHg 87%
22:00 +16°C° 0 mm 2 m/S 749 mmHg 88%
23:00 +16°C° 0 mm 2 m/S 749 mmHg 88%

5 August, Donnerstag

Zeit Temperatur Niederschläge Wind Luftdruck Luftfeuchtigkeit
00:00 +16°C° 0 mm 1 m/S 748 mmHg 88%
01:00 +16°C° 0 mm 1 m/S 748 mmHg 89%
02:00 +16°C° 0 mm 2 m/S 748 mmHg 89%
03:00 +16°C° 0 mm 2 m/S 748 mmHg 89%
04:00 +15°C° 0 mm 2 m/S 748 mmHg 90%
05:00 +16°C° 0 mm 2 m/S 748 mmHg 88%
06:00 +16°C° 0 mm 3 m/S 748 mmHg 87%
07:00 +16°C° 0 mm 3 m/S 747 mmHg 85%
08:00 +17°C° 0 mm 3 m/S 747 mmHg 80%
09:00 +18°C° 0 mm 3 m/S 747 mmHg 74%
10:00 +19°C° 0 mm 3 m/S 747 mmHg 68%
11:00 +20°C° 0.1 mm 3 m/S 747 mmHg 66%
12:00 +20°C° 0.1 mm 3 m/S 747 mmHg 63%
13:00 +21°C° 0.1 mm 3 m/S 746 mmHg 61%
14:00 +21°C° 0.1 mm 3 m/S 746 mmHg 59%
15:00 +22°C° 0.1 mm 3 m/S 746 mmHg 57%
16:00 +22°C° 0.1 mm 3 m/S 746 mmHg 55%
17:00 +21°C° 0.1 mm 2 m/S 746 mmHg 62%
18:00 +20°C° 0.1 mm 2 m/S 745 mmHg 68%
19:00 +19°C° 0.1 mm 2 m/S 745 mmHg 75%
20:00 +18°C° 0 mm 2 m/S 745 mmHg 78%
21:00 +17°C° 0 mm 2 m/S 745 mmHg 81%
22:00 +16°C° 0 mm 2 m/S 745 mmHg 85%
23:00 +15°C° 0 mm 2 m/S 746 mmHg 85%

6 August, Freitag

Zeit Temperatur Niederschläge Wind Luftdruck Luftfeuchtigkeit
00:00 +15°C° 0 mm 2 m/S 746 mmHg 86%
01:00 +15°C° 0 mm 2 m/S 746 mmHg 86%
02:00 +14°C° 0 mm 2 m/S 746 mmHg 87%
03:00 +14°C° 0 mm 2 m/S 746 mmHg 88%
04:00 +14°C° 0 mm 2 m/S 746 mmHg 89%
05:00 +14°C° 0 mm 3 m/S 746 mmHg 86%
06:00 +17°C° 0 mm 3 m/S 746 mmHg 82%
07:00 +18°C° 0 mm 3 m/S 745 mmHg 79%
08:00 +19°C° 0 mm 4 m/S 746 mmHg 73%
09:00 +21°C° 0 mm 4 m/S 746 mmHg 67%
10:00 +22°C° 0 mm 4 m/S 746 mmHg 61%
11:00 +23°C° 0.2 mm 4 m/S 746 mmHg 59%
12:00 +23°C° 0.2 mm 4 m/S 745 mmHg 57%
13:00 +25°C° 0.2 mm 5 m/S 745 mmHg 55%
14:00 +25°C° 0.1 mm 5 m/S 745 mmHg 56%
15:00 +25°C° 0.1 mm 5 m/S 745 mmHg 56%
16:00 +25°C° 0.1 mm 5 m/S 745 mmHg 56%
17:00 +22°C° 0.1 mm 4 m/S 745 mmHg 61%
18:00 +21°C° 0.1 mm 3 m/S 745 mmHg 67%
19:00 +20°C° 0.1 mm 2 m/S 745 mmHg 72%
20:00 +19°C° 0 mm 2 m/S 746 mmHg 75%
21:00 +18°C° 0 mm 2 m/S 746 mmHg 77%
22:00 +17°C° 0 mm 2 m/S 746 mmHg 80%
23:00 +17°C° 0 mm 2 m/S 746 mmHg 80%
Mehr zeigen

Wir brauchen deine Erlaubnis

Meteoprog und unser Service Anbieter werden persönliche Daten aufbewahren, so wie Cookies, Geräte Bezeichnung oder ähnliche Technologien von deinem Gerät und Prozess, so wie Persönliche Daten Inhalte und Werbungen, genauso wie social Media und den Verkehr zu analysieren.

  • Aufbewahrung und/oder Zugang zu deiner Geräte Informationen.

    Cookies, Geräte Bezeichnung oder andere Informationen, können aufbewahrt oder Zugang zu deinem Gerät erhalten, für den Grund, der oben angegeben wird.

  • Personalisierte Werbung und Inhalte, Messungen, Einblick in das Publikum und Produkt Entwicklung.

    Werbungen und Inhalte können personalisiert werden, basierend auf ein Profil. Mehr Daten können besser personalisierte Werbungen und Inhalte hinzufügen. Werbung und Inhalte können gezeigt und gemessen werden. Einblicke über das Publikum, welche die Werbung gesehen haben und den Inhalt, können abgeleitet werden. So wie Daten können genutzt werden, um es zu verbessern oder die Benutzer Erfahrung zu verbessern das System und die Software.

Wenn du “Ich stimme zu” klickst, erlaubst du uns, die Cookies zu benutzen die Geräte Bezeichnung, den Web oder ähnliche Technologien zu benutzen. Deine Settings, können in deinem Gerät bei deinem Browser geändert werden.

Für den bestimmten Zweck, berechtigten Interessen beruhen darauf, mehr als auf den Inhalt. Du kannst mehr darüber in unseren Privaten und Cookie Politik lesen.